Date,TemperatureHighF,TemperatureAvgF,TemperatureLowF,DewpointHighF,DewpointAvgF,DewpointLowF,HumidityHigh,HumidityAvg,HumidityLow,PressureMaxIn,PressureMinIn,WindSpeedMaxMPH,WindSpeedAvgMPH,GustSpeedMaxMPH,PrecipitationSumIn
2013-5-1,74.7,54.6,35.1,21.2,9.2,-2.6,20,16,13,30.33,30.06,15,5,15,0.00
2013-5-2,86.0,58.8,27.0,25.4,11.4,-7.8,21,16,11,30.39,30.12,11,2,24,0.00
2013-5-3,91.2,67.0,35.8,27.1,15.7,-2.4,19,14,10,30.15,29.88,17,4,17,0.00
2013-5-4,82.2,62.5,48.7,24.6,15.6,4.6,25,16,12,29.91,29.68,22,6,22,0.00
2013-5-5,84.6,61.5,42.3,29.0,20.9,10.1,36,22,11,29.76,29.62,22,7,23,0.00
2013-5-6,79.7,58.9,48.9,35.6,27.0,17.4,56,32,12,29.82,29.71,24,6,26,0.29
2013-5-7,66.6,53.2,45.5,45.2,32.9,24.9,86,49,23,29.91,29.82,20,7,20,1.90
2013-5-8,83.8,61.0,48.4,44.3,33.6,16.9,85,45,11,30.03,29.91,14,4,14,5.00
2013-5-9,90.1,69.6,46.0,39.6,29.2,19.6,70,27,10,30.09,29.97,15,4,15,5.00
2013-5-10,91.9,78.2,58.3,32.0,23.3,16.1,28,14,9,30.15,30.03,15,3,17,0.00
2013-5-11,99.3,76.3,48.0,35.7,28.3,18.8,52,20,8,30.18,30.06,15,3,15,0.00
2013-5-12,99.7,78.2,54.7,34.9,26.5,18.5,38,16,9,30.18,30.00,20,6,20,0.00
2013-5-13,96.3,74.9,51.6,33.3,24.0,14.5,36,16,9,30.09,29.94,25,6,25,0.00
2013-5-14,97.2,72.4,48.4,34.0,23.1,12.7,37,17,9,30.00,29.85,25,4,28,0.00
2013-5-15,90.0,70.7,55.6,27.2,22.5,14.4,32,17,10,29.94,29.85,26,8,27,0.00
2013-5-16,67.1,60.7,54.5,38.0,22.3,12.7,43,23,16,29.91,29.79,18,7,19,3.05
2013-5-17,78.6,62.9,43.0,37.3,23.5,10.7,62,26,13,29.94,29.79,25,7,25,0.61
2013-5-18,86.0,63.5,44.1,24.5,18.4,8.8,31,18,11,30.03,29.91,27,6,27,6.10
2013-5-19,81.3,62.8,50.5,28.6,22.4,11.3,39,23,12,30.12,30.03,18,7,18,3.51
2013-5-20,87.8,64.2,37.6,26.5,17.0,5.4,34,17,10,30.15,29.91,12,2,12,3.51
2013-5-21,84.6,65.1,46.8,24.6,15.9,4.1,24,15,11,29.91,29.68,31,8,31,3.51
2013-5-22,74.1,56.0,40.6,20.9,12.3,1.9,33,18,13,29.85,29.71,32,9,32,3.51
2013-5-23,76.5,54.7,29.5,22.0,10.9,-6.0,31,18,13,29.94,29.74,20,4,20,3.51
2013-5-24,88.3,62.2,32.7,26.4,16.5,3.5,37,19,10,29.94,29.76,23,5,23,3.51
2013-5-25,88.3,68.3,50.7,26.4,17.6,6.2,18,14,10,29.91,29.79,29,6,29,3.51
2013-5-26,79.3,65.2,46.6,23.7,16.9,6.5,23,16,12,30.00,29.85,25,9,27,3.51
2013-5-27,81.3,59.7,42.4,32.0,21.7,12.8,38,24,12,30.00,29.79,26,7,26,3.51
2013-5-28,76.6,62.1,48.6,42.4,26.8,11.9,76,31,13,29.85,29.79,20,6,20,3.10
2013-5-29,85.8,64.7,46.9,29.6,23.2,14.6,41,23,11,29.88,29.74,115,7,115,3.51
2013-5-30,92.7,68.5,44.1,29.4,23.2,15.8,41,20,9,29.97,29.82,18,5,18,3.51
2013-5-31,92.1,70.7,42.1,27.1,19.9,7.4,31,16,9,30.12,29.97,11,3,11,3.51